Location: Zagreb
(45.8000°N, 16.0000°E)
Time: 18:56:10
(UTC+02:00)

Explorer 7 - All Passes

Search period start: 09 August 2020 00:00
Search period end: 19 August 2020 00:00
Orbit: 485 x 679 km, 50.3° (Epoch: 08 August)

Date Brightness Start Highest point End Pass type
(mag) Time Alt. Az. Time Alt. Az. Time Alt. Az.
09 Aug - 01:36:53 10° WNW 01:40:37 63° NNE 01:44:22 10° E visible
09 Aug - 03:17:31 10° WNW 03:20:55 33° SW 03:24:23 10° SSE night (unlit)
09 Aug - 20:39:39 10° SW 20:43:24 40° SE 20:47:00 10° ENE visible
09 Aug - 22:19:58 10° W 22:23:49 57° NNW 22:27:33 10° ENE visible
10 Aug - 00:01:04 10° WNW 00:04:41 41° N 00:08:16 10° ENE visible
10 Aug - 01:41:40 10° WNW 01:45:26 85° NNE 01:49:13 10° ESE visible
10 Aug - 03:22:38 10° W 03:25:32 21° SW 03:28:30 10° S night (unlit)
10 Aug - 19:06:26 10° SSE 19:08:11 13° SE 19:09:55 10° ESE daylight
10 Aug - 20:44:10 10° SW 20:48:06 61° SSE 20:51:53 10° ENE visible
10 Aug - 22:24:55 10° W 22:28:41 47° NNW 22:32:21 10° ENE visible
11 Aug - 00:05:56 10° WNW 00:09:36 45° N 00:13:13 10° E visible
11 Aug - 01:46:28 10° WNW 01:50:12 68° SSW 01:53:58 10° SE night (unlit)
11 Aug - 03:28:15 10° WSW 03:30:07 13° SW 03:31:59 10° SSW night (unlit)
11 Aug - 19:09:44 10° S 19:12:45 20° SE 19:15:40 10° E daylight
11 Aug - 20:48:51 10° WSW 20:52:52 87° SSE 20:56:42 10° ENE visible
11 Aug - 22:29:53 10° WNW 22:33:35 42° N 22:37:12 10° ENE visible
12 Aug - 00:10:46 10° WNW 00:14:29 53° NNE 00:18:10 10° E visible
12 Aug - 01:51:20 10° WNW 01:54:55 44° SW 01:58:32 10° SE night (unlit)
12 Aug - 19:13:44 10° SSW 19:17:22 30° SE 19:20:50 10° E daylight
12 Aug - 20:53:41 10° WSW 20:57:40 69° NNW 21:01:30 10° ENE visible
12 Aug - 22:34:49 10° WNW 22:38:30 41° N 22:42:05 10° ENE visible
13 Aug - 00:15:33 10° WNW 00:19:20 68° NNE 00:23:04 10° ESE visible
13 Aug - 01:56:19 10° W 01:59:35 28° SW 02:02:51 10° SSE night (unlit)
13 Aug - 19:18:05 10° SW 19:22:02 46° SSE 19:25:48 10° ENE daylight
13 Aug - 20:58:36 10° W 21:02:31 54° NNW 21:06:17 10° ENE visible
13 Aug - 22:39:43 10° WNW 22:43:26 42° N 22:47:01 10° ENE visible
14 Aug - 00:20:21 10° WNW 00:24:08 87° SSW 00:27:54 10° ESE visible
14 Aug - 02:01:33 10° W 02:04:11 18° SW 02:06:49 10° S night (unlit)
14 Aug - 17:44:18 10° S 17:46:45 15° SE 17:49:08 10° E daylight
14 Aug - 19:22:39 10° SW 19:26:46 69° SSE 19:30:39 10° ENE daylight
14 Aug - 21:03:33 10° W 21:07:24 46° N 21:11:06 10° ENE visible
14 Aug - 22:44:34 10° WNW 22:48:20 47° N 22:51:59 10° E visible
15 Aug - 00:25:10 10° WNW 00:28:53 60° SSW 00:32:35 10° SE visible
15 Aug - 02:07:33 10° WSW 02:08:42 11° SW 02:09:53 10° SSW night (unlit)
15 Aug - 17:47:57 10° SSW 17:51:20 24° SE 17:54:36 10° E daylight
15 Aug - 19:27:23 10° WSW 19:31:32 85° NNW 19:35:27 10° ENE daylight
15 Aug - 21:08:31 10° WNW 21:12:19 42° N 21:15:58 10° ENE visible
15 Aug - 22:49:24 10° WNW 22:53:12 57° NNE 22:56:55 10° E visible
16 Aug - 00:30:03 10° WNW 00:33:35 38° SW 00:37:05 10° SSE visible
16 Aug - 17:52:04 10° SSW 17:55:58 35° SE 17:59:40 10° ENE daylight
16 Aug - 19:32:15 10° WSW 19:36:21 65° NNW 19:40:14 10° ENE daylight
16 Aug - 21:13:27 10° WNW 21:17:14 41° N 21:20:52 10° ENE visible
16 Aug - 22:54:11 10° WNW 22:58:03 75° NNE 23:01:48 10° ESE visible
17 Aug - 00:35:06 10° W 00:38:13 25° SW 00:41:19 10° SSE visible
17 Aug - 16:19:23 10° SSE 16:20:46 11° SE 16:22:07 10° ESE daylight
17 Aug - 17:56:30 10° SW 18:00:39 53° SSE 18:04:35 10° ENE daylight
17 Aug - 19:37:11 10° W 19:41:13 52° NNW 19:45:02 10° ENE daylight
17 Aug - 21:18:20 10° WNW 21:22:09 44° N 21:25:48 10° E visible
17 Aug - 22:58:59 10° WNW 23:02:50 79° SSW 23:06:35 10° ESE visible
18 Aug - 00:40:26 10° W 00:42:47 16° SW 00:45:07 10° S visible
18 Aug - 16:22:19 10° S 16:25:18 18° SE 16:28:11 10° E daylight
18 Aug - 18:01:08 10° WSW 18:05:23 77° SSE 18:09:24 10° ENE daylight
18 Aug - 19:42:08 10° W 19:46:06 45° N 19:49:52 10° ENE daylight
18 Aug - 21:23:11 10° WNW 21:27:02 50° NNE 21:30:45 10° E visible
18 Aug - 23:03:49 10° WNW 23:07:34 53° SSW 23:11:13 10° SE visible
